Кобда

Казахстан     50°09′05″N   55°40′16″E
В апреле 2022 года жителям России запретили посещать сайт meteo.paraplan.net по решению Генеральной прокуратуры. Аудитория сайта уменьшилась в 10 раз. Владельцы сайта не видят смысла в поддержке погодного сервера в таких условиях. Сайт будет закрыт в октябре.
темп.,
°C
ветер,
м/с
пор.,
м/с
влажн.,
%
обл.,
%
осадки,
мм/ч
давл.,
гПа
погр.,
м
4 октября, вт
вт423:00+10вюв410240 0.0 1027188
02:00+8вюв410270 0.0 1029206
05:00+6вюв48300 0.0 1030159
08:00+6вюв49306 0.0 1031178
11:00+12юв7920100 0.0 1031661
14:00+15юв781589 0.0 10311112
17:00+16юв671380 0.0 10301146
20:00+11вюв5101923 0.0 1031168
5 октября, ср
ср523:00+9вюв5132299 0.0 1031251
02:00+8юв4102590 0.0 1032196
05:00+6юв5112887 0.0 1032199
08:00+6юв5122884 0.0 1032243
11:00+13ююв71118100 0.0 1031530
14:00+17ююв7913100 0.0 1030950
17:00+18ююв6913100 0.0 1029965
20:00+13юв491760 0.0 1028147
6 октября, чт
чт623:00+12юв41218100 0.0 1028229
02:00+12ююв51420100 0.0 1027318
05:00+11ююв61423100 0.0 1026335
08:00+11ю61424100 0.0 1025363
11:00+15ю91422100 0.0 1024544
14:00+18ююз81018100 0.0 10221001
17:00+18ююз6920100 0.0 1021649
20:00+15ююз3833100 0.1 1022237
7 октября, пт
пт723:00+13зюз3641100 0.1 1021275
02:00+12ю374799 0.1 1020348
05:00+10зюз36785 0.1 1020126
08:00+8з38746 0.0 1020241
11:00+12зсз67545 0.0 10211076
14:00+13зсз78415 0.0 10201739
17:00+13зсз784022 0.0 10201772
20:00+9сз36515 0.0 1022140
8 октября, сб
сб823:00+8зсз34574 0.0 102368
02:00+9з345598 0.0 1023145
05:00+9зюз4854100 0.0 1023256
08:00+10з41056100 0.0 1024376
11:00+14зсз68560 0.0 1025823
14:00+16сз67450 0.0 10251276
17:00+16сз56360 0.0 10261211
20:00+12сз33470 0.0 102730